UAE9964 EHAM-OMDW

Flight info

Callsign UAE9964
Flight time N/A
Altitude 35000
Route EDUPO Z739 MISGO DCT DOJOH DCT DODEN DCT NEGIX DCT DINKU DCT BESNI DCT LATLO DCT OBEDI DCT BERTA DCT TEBLI DCT PODOB/N0478F370 DCT MEDUX UM867 KOGAT DCT TALAS UN130 MES UL609 RDS DCT VANZA DCT LAKTO L560 SERMA L550 KARIK B411 DEESA Y415 LOTOK P559 NALPO/N0506F350 P559 KIVUS G666 ELOVU
Aircraft B77W/H-SDE1E2E3FGHIJ2J3J4J5M1RWXY/LB1D1

Departure

Time 2026-04-28 15:22
Airport Amsterdam Airport Schiphol (EHAM)

Arrival

Time N/A
Airport Al Maktoum International Airport (OMDW)
Time Latitude Longitude Altitude Speed Heading
2026-04-28 14:55 52.31159 4.76799 2 ft 0 kts 303°
2026-04-28 15:11 52.31157 4.76804 2 ft 2 kts 303°
2026-04-28 15:11 52.31146 4.76830 4 ft 3 kts 303°
2026-04-28 15:11 52.31137 4.76853 4 ft 3 kts 307°
2026-04-28 15:11 52.31124 4.76875 6 ft 3 kts 337°
2026-04-28 15:12 52.31106 4.76881 3 ft 3 kts 11°
2026-04-28 15:12 52.31088 4.76872 6 ft 2 kts 30°
2026-04-28 15:12 52.31084 4.76867 4 ft 0 kts 32°
2026-04-28 15:16 52.31106 4.76891 3 ft 7 kts 32°
2026-04-28 15:16 52.31145 4.76932 2 ft 7 kts 33°
2026-04-28 15:16 52.31190 4.76981 2 ft 12 kts 33°
2026-04-28 15:17 52.31295 4.77094 2 ft 20 kts 34°
2026-04-28 15:17 52.31411 4.77186 2 ft 16 kts
2026-04-28 15:17 52.31481 4.77125 2 ft 11 kts 281°
2026-04-28 15:17 52.31482 4.76998 2 ft 12 kts 267°
2026-04-28 15:18 52.31477 4.76829 2 ft 19 kts 267°
2026-04-28 15:18 52.31469 4.76599 2 ft 20 kts 266°
2026-04-28 15:18 52.31461 4.76368 2 ft 20 kts 267°
2026-04-28 15:18 52.31454 4.76137 2 ft 20 kts 267°
2026-04-28 15:19 52.31446 4.75905 2 ft 20 kts 266°
2026-04-28 15:19 52.31437 4.75673 2 ft 20 kts 266°
2026-04-28 15:19 52.31428 4.75442 2 ft 20 kts 263°
2026-04-28 15:19 52.31418 4.75211 2 ft 20 kts 267°
2026-04-28 15:20 52.31411 4.74979 2 ft 20 kts 267°
2026-04-28 15:20 52.31409 4.74748 2 ft 20 kts 284°
2026-04-28 15:20 52.31528 4.74664 2 ft 20 kts 356°
2026-04-28 15:20 52.31648 4.74696 5 ft 16 kts 42°
2026-04-28 15:21 52.31674 4.74883 1 ft 24 kts 86°
2026-04-28 15:21 52.31696 4.75522 -2 ft 93 kts 86°
2026-04-28 15:21 52.31744 4.76917 1 ft 152 kts 86°
2026-04-28 15:21 52.31794 4.78795 358 ft 168 kts 84°
2026-04-28 15:22 52.31840 4.80735 988 ft 171 kts 86°
2026-04-28 15:22 52.31897 4.82616 1855 ft 165 kts 83°
2026-04-28 15:22 52.31974 4.84586 2233 ft 186 kts 83°
2026-04-28 15:22 52.31989 4.86823 2489 ft 212 kts 95°
2026-04-28 15:23 52.31464 4.89206 2946 ft 230 kts 110°
2026-04-28 15:23 52.30800 4.91630 3535 ft 243 kts 110°
2026-04-28 15:23 52.30163 4.94152 4432 ft 240 kts 110°
2026-04-28 15:23 52.29480 4.96693 5154 ft 246 kts 111°
2026-04-28 15:24 52.28954 4.99365 5933 ft 248 kts 104°
2026-04-28 15:24 52.28493 5.02127 6661 ft 255 kts 104°
2026-04-28 15:24 52.28015 5.04939 7407 ft 259 kts 104°
2026-04-28 15:24 52.27524 5.07813 8113 ft 264 kts 104°
2026-04-28 15:25 52.27028 5.10706 8906 ft 266 kts 104°
2026-04-28 15:25 52.26510 5.13550 9752 ft 264 kts 111°
2026-04-28 15:25 52.25567 5.16055 10504 ft 264 kts 124°
2026-04-28 15:25 52.24442 5.18506 10942 ft 280 kts 124°
2026-04-28 15:26 52.23233 5.21177 11085 ft 306 kts 124°
2026-04-28 15:26 52.21926 5.24094 11293 ft 332 kts 124°
2026-04-28 15:26 52.20523 5.27249 11611 ft 352 kts 123°
2026-04-28 15:26 52.19061 5.30545 12289 ft 362 kts 124°
2026-04-28 15:27 52.17582 5.33892 13237 ft 367 kts 123°
2026-04-28 15:27 52.16087 5.37281 14279 ft 369 kts 123°
2026-04-28 15:27 52.14579 5.40709 15039 ft 378 kts 124°
2026-04-28 15:27 52.13121 5.44028 15809 ft 380 kts 123°
2026-04-28 15:28 52.11532 5.47636 16728 ft 387 kts 124°
2026-04-28 15:28 52.09943 5.51244 17439 ft 395 kts 124°
2026-04-28 15:28 52.08338 5.54884 18309 ft 399 kts 124°
2026-04-28 15:28 52.06704 5.58583 19125 ft 402 kts 124°
2026-04-28 15:29 52.05085 5.62241 19864 ft 406 kts 123°
2026-04-28 15:29 52.03425 5.65992 20543 ft 412 kts 123°
2026-04-28 15:29 52.01749 5.69771 21311 ft 415 kts 124°
2026-04-28 15:29 52.00039 5.73623 21837 ft 425 kts 124°
2026-04-28 15:30 51.98303 5.77522 22606 ft 426 kts 123°
2026-04-28 15:30 51.96560 5.81433 23360 ft 429 kts 123°
2026-04-28 15:30 51.94808 5.85357 24041 ft 432 kts 124°
2026-04-28 15:30 51.93032 5.89334 24476 ft 440 kts 123°
2026-04-28 15:31 51.91250 5.93317 24988 ft 444 kts 124°
2026-04-28 15:31 51.89431 5.97376 25519 ft 448 kts 124°
2026-04-28 15:31 51.87580 6.01501 25882 ft 457 kts 125°
2026-04-28 15:31 51.84024 6.09026 26779 ft 464 kts 129°
2026-04-28 15:32 51.67579 6.38821 30343 ft 484 kts 130°
2026-04-28 15:32 51.64328 6.44730 30839 ft 487 kts 130°
2026-04-28 15:32 51.58279 6.55669 31747 ft 491 kts 131°
2026-04-28 15:32 51.53712 6.63904 32323 ft 495 kts 131°
2026-04-28 15:33 51.49101 6.72197 32880 ft 499 kts 132°
2026-04-28 15:33 51.44505 6.80442 33687 ft 498 kts 132°
2026-04-28 15:33 51.39909 6.88579 34411 ft 496 kts 134°
2026-04-28 15:33 51.35103 6.96130 34937 ft 497 kts 137°
2026-04-28 15:34 51.32609 6.99949 35190 ft 495 kts 137°
2026-04-28 15:34 51.27615 7.07590 35184 ft 499 kts 137°
2026-04-28 15:35 50.94386 7.58390 35200 ft 504 kts 139°
2026-04-28 15:35 50.50578 8.26109 35066 ft 503 kts 141°
2026-04-28 15:36 50.27643 8.48631 35120 ft 490 kts 161°
2026-04-28 15:36 50.02203 8.64541 35223 ft 501 kts 163°
2026-04-28 15:36 49.82516 8.95768 35226 ft 533 kts 109°
2026-04-28 15:36 49.81279 9.01658 35191 ft 523 kts 113°
2026-04-28 15:37 49.78799 9.10035 35122 ft 512 kts 122°